GFSNE_con_3kmhel_165.txt.gz
Helicity
55 40 64 46 53 88 105 123 154 162 190 352 318 178 141 240 332 230 132 129 164 144 155 235 166 237 258 253 217 183 157 140 125 92 90 96 76 70
23 34 56 53 57 42 84 69 130 109 149 175 209 167 164 236 145 168 187 115 217 132 142 208 217 174 248 281 281 245 211 179 152 128 117 113 110 92
20 37 41 46 27 8 1 22 59 82 130 139 206 217 159 187 205 169 111 144 167 174 250 216 209 182 257 279 310 296 268 224 205 166 152 140 125 99
31 52 33 -3 2 27 7 27 35 56 120 180 227 224 191 118 97 119 140 165 218 191 179 168 157 211 249 281 330 362 333 287 252 219 203 196 168 120
31 43 24 4 -6 21 51 -65 -9 13 90 152 274 239 242 181 117 121 180 151 122 117 143 182 159 169 215 280 319 340 335 323 305 284 270 285 240 127
21 22 27 2 -7 31 47 19 -97 -84 55 103 252 241 263 240 187 185 200 208 157 157 179 197 165 157 196 234 276 282 259 263 281 287 304 348 336 245
34 18 35 32 67 101 44 84 62 10 93 299 289 285 321 313 216 250 153 176 151 185 193 230 236 183 167 249 201 220 221 232 260 248 257 286 323 347
-0 11 9 34 63 155 219 293 270 241 280 299 285 237 241 190 215 232 234 262 225 230 188 183 220 199 169 165 109 150 216 242 255 239 234 264 337 372
12 -15 -8 -27 27 11 101 166 217 127 547 546 459 455 368 318 273 269 216 195 177 203 229 204 206 163 162 164 132 114 178 156 192 211 187 238 266 325
26 -43 -15 -6 -41 40 35 131 218 307 380 510 405 347 376 358 361 269 337 339 265 281 262 192 200 157 199 199 156 153 153 164 168 201 194 222 237 248
36 -12 -32 5 23 53 57 83 187 306 191 433 357 330 356 442 366 249 329 335 354 196 207 192 138 193 167 178 172 147 139 184 183 172 168 185 191 259
13 21 25 37 44 40 -17 67 95 324 266 370 350 338 271 449 535 506 325 350 307 249 208 170 158 157 65 98 118 116 114 118 120 109 125 157 201 218
-3 2 19 57 49 36 31 40 106 139 255 304 261 252 251 242 191 152 253 250 212 196 213 177 97 135 168 119 107 129 111 131 128 119 112 124 125 182
11 4 2 54 53 63 40 53 97 146 179 213 208 227 179 153 228 148 181 199 161 160 191 193 190 178 170 145 130 125 149 113 144 137 115 87 55 88
14 19 44 42 49 50 89 88 63 48 88 148 179 174 167 140 187 113 131 167 148 124 130 143 127 112 95 87 86 107 122 134 111 144 145 124 125 140
41 28 25 32 20 17 34 66 68 75 90 127 146 118 126 149 125 128 101 147 155 139 121 141 132 85 86 99 92 89 90 151 108 90 115 132 123 127
15 9 27 37 59 68 58 67 82 95 77 107 84 123 119 131 147 128 105 119 129 137 132 111 104 102 101 90 87 85 89 109 108 87 101 88 124 120
-18 2 13 20 34 61 95 104 95 107 124 128 99 115 113 90 117 97 112 106 111 120 131 128 112 97 95 105 117 115 110 116 126 144 134 104 117 134
-39 -16 9 31 37 36 61 80 112 105 103 103 129 149 166 140 124 101 108 95 98 106 137 143 124 116 123 119 120 139 143 132 151 162 173 163 102 98
-51 -31 -9 11 30 52 60 74 88 91 85 83 90 105 137 176 200 169 123 106 127 130 128 121 117 122 125 138 149 161 178 161 174 192 216 208 214 201
-9 -14 -14 1 5 20 44 58 76 86 88 93 90 87 98 106 108 123 133 147 142 117 131 139 158 176 161 132 125 128 149 174 182 195 209 220 209 197
-2 16 20 -2 6 17 33 48 57 64 75 74 90 89 88 78 87 103 109 124 107 107 124 124 127 124 128 128 117 130 139 174 190 222 249 238 197 163
-3 11 23 27 18 29 41 52 59 66 69 83 85 81 80 79 66 61 67 69 82 94 93 97 115 115 112 133 142 151 156 180 191 197 252 221 222 201

GFSNE_con_3kmhel_168.txt.gz
Helicity
48 37 67 79 67 63 82 54 75 24 53 21 106 141 84 212 243 269 270 264 397 422 281 330 266 191 235 250 229 203 173 157 127 113 92 99 94 75
54 24 40 57 53 62 73 77 63 51 -20 1 64 137 105 171 203 272 230 276 335 320 372 348 385 265 155 239 265 247 216 191 185 146 117 98 101 106
26 3 28 48 52 46 57 56 46 32 -30 -109 -15 66 101 113 166 217 203 259 284 362 364 458 325 258 364 210 255 270 249 225 218 204 172 132 121 106
36 2 11 43 37 39 52 58 42 25 -6 -85 -129 44 32 84 150 163 196 171 189 211 219 184 241 284 255 119 197 233 291 270 249 233 222 186 157 132
48 30 25 30 27 28 27 41 31 2 -11 -99 -223 -66 -14 63 37 113 140 120 165 130 110 169 271 252 260 183 256 356 379 336 320 296 268 245 215 179
56 55 40 30 33 30 14 25 19 9 -11 -123 -199 -176 -3 55 124 155 179 225 199 146 177 170 190 181 218 243 271 357 300 262 333 322 348 336 296 257
51 58 64 50 17 15 15 2 -2 -1 9 -87 -157 -157 -118 14 113 184 207 246 179 198 243 214 194 153 110 171 156 214 257 293 255 287 324 328 329 304
33 52 59 59 41 3 22 82 62 31 50 12 -34 -124 -144 69 178 198 243 284 241 267 224 231 222 165 123 174 136 151 189 217 274 326 330 334 322 274
24 38 42 53 25 -35 16 59 89 110 60 99 61 24 -20 130 483 224 251 214 215 234 244 233 226 185 183 189 146 129 165 204 251 277 261 280 297 332
31 27 34 29 17 1 -5 20 74 65 75 105 131 147 242 291 278 381 411 292 305 305 275 261 308 281 268 200 153 136 129 161 162 195 221 251 257 273
31 34 29 32 35 39 -2 -0 30 65 112 177 280 347 306 385 339 360 458 360 337 286 277 257 288 294 276 245 210 137 143 153 161 134 165 174 233 273
51 39 43 41 35 37 4 -11 13 53 156 170 214 240 473 517 437 425 431 337 328 305 339 338 314 340 274 225 227 184 183 149 156 151 149 134 157 179
14 36 43 81 43 34 44 10 13 49 97 105 140 173 317 410 440 403 373 384 314 303 490 374 360 334 305 189 229 216 217 205 183 192 130 142 135 175
-3 25 44 95 54 24 26 66 66 37 41 53 83 122 305 349 330 317 253 303 245 250 376 453 295 305 281 240 177 187 186 151 121 128 168 107 95 88
10 20 55 62 57 16 44 52 54 36 65 41 132 190 273 264 306 389 312 313 323 302 259 281 254 211 223 269 215 201 179 187 153 174 122 136 133 144
39 9 21 39 33 23 3 23 6 34 66 70 93 123 159 225 250 279 278 340 298 256 102 72 107 146 126 139 144 165 192 179 180 194 156 147 141 119
-3 -14 1 18 39 51 34 20 39 58 84 96 118 108 110 125 166 209 246 272 256 269 168 148 142 115 131 136 130 132 140 152 153 135 164 165 160 165
-49 -28 -9 4 27 58 72 70 55 89 100 113 131 116 119 94 122 180 209 208 181 168 139 147 166 135 116 113 126 122 125 131 123 112 125 141 129 130
-64 -41 -14 10 24 21 54 74 81 74 94 93 133 137 114 153 142 114 154 201 207 187 168 166 149 134 120 128 108 140 113 114 116 123 128 150 135 136
-53 -48 -24 11 40 43 30 57 84 80 85 99 122 146 150 150 115 166 175 151 191 157 162 165 147 119 141 141 150 133 131 126 123 135 156 178 180 169
-34 -40 -36 -16 24 46 40 40 57 82 93 92 98 120 142 151 167 153 150 220 220 163 162 135 111 90 108 83 79 86 102 129 143 146 147 178 181 165
-25 -28 -29 -27 -4 24 37 44 59 64 73 80 99 108 119 137 160 172 170 183 172 180 208 195 157 116 90 89 91 97 111 134 156 178 198 204 185 160
-26 -21 -20 -18 -12 5 28 43 59 57 67 84 91 102 111 121 108 114 130 140 165 176 182 182 181 165 101 95 127 118 112 126 148 163 189 221 238 199

GFSNE_con_3kmhel_171.txt.gz
Helicity
55 66 91 107 104 81 96 114 98 4 -12 9 -13 -4 -31 -8 54 168 91 29 227 219 300 296 363 373 452 314 229 214 189 184 167 137 134 106 98 73
62 55 72 94 98 90 65 81 89 88 -6 -28 -23 -16 -43 -50 51 56 163 -38 122 229 319 421 401 365 390 387 480 260 245 204 211 178 155 128 104 105
48 48 54 70 93 86 64 60 70 77 49 -52 -35 -47 -49 -70 -25 34 -8 252 147 207 260 339 420 462 442 482 437 361 269 255 245 226 202 172 137 109
37 39 46 63 71 80 80 60 64 50 34 -63 -58 -63 -29 -79 -24 56 -17 82 106 190 240 336 300 331 456 462 508 498 355 272 272 274 239 215 174 137
28 33 42 46 56 74 83 72 47 31 34 1 -64 -10 -26 -93 -91 23 7 47 111 72 197 267 262 292 355 373 421 470 470 380 311 310 298 270 241 202
28 36 43 54 53 60 75 80 55 25 16 6 -11 -23 -36 -109 -58 48 -28 37 25 74 166 181 251 204 270 344 379 597 421 357 321 271 352 341 312 270
36 37 47 40 46 71 65 60 52 30 16 16 -4 6 -13 -129 -127 14 13 -30 -70 165 184 197 272 211 218 189 200 234 330 386 414 336 301 304 326 290
38 39 40 46 54 49 58 45 57 50 11 0 -24 1 3 -77 -182 -68 -53 -88 28 72 108 91 270 232 168 170 171 234 245 278 348 278 190 254 287 264
28 35 41 45 50 37 36 47 53 57 -5 -5 0 5 -38 -15 -86 -47 -13 -73 18 112 143 176 277 227 180 206 198 233 210 266 246 220 284 327 275 295
36 21 28 40 48 49 36 40 55 64 33 57 68 39 2 -11 26 15 76 -99 -120 120 301 302 350 273 266 214 185 145 149 105 176 188 239 290 261 264
40 28 15 23 71 76 49 34 56 69 45 71 85 69 80 46 58 16 -3 -201 -80 660 502 371 365 359 323 245 188 152 149 134 153 133 171 193 226 280
41 37 38 29 63 60 35 29 31 49 61 62 76 66 58 61 116 79 213 70 22 429 702 423 387 343 253 273 272 208 200 175 137 155 153 166 236 194
48 26 26 48 62 58 44 26 33 25 41 21 -1 35 76 99 78 221 489 320 146 590 513 409 402 415 310 298 346 331 296 269 250 181 161 173 192 171
54 39 21 45 49 46 23 63 70 25 14 26 4 0 52 96 183 380 628 622 303 356 445 472 456 431 337 372 395 398 371 299 281 263 246 178 164 142
54 33 12 31 42 14 48 63 41 1 18 36 23 0 84 197 210 290 373 488 425 470 393 480 448 453 472 454 319 313 325 361 261 246 278 247 253 212
47 55 19 1 -1 2 12 21 23 10 10 57 71 22 49 138 170 182 317 402 381 417 285 431 446 469 506 474 449 474 357 259 239 253 233 224 155 163
55 32 9 -20 -15 -8 18 35 46 43 49 54 114 80 62 113 220 190 226 249 293 315 374 403 375 273 285 236 310 334 304 257 210 229 179 203 240 184
47 27 -3 -29 -19 1 19 45 57 81 75 85 77 103 86 95 156 185 179 176 198 311 387 371 374 330 241 130 167 118 87 114 138 152 210 205 205 224
52 22 -17 -36 -28 -6 5 35 65 79 91 74 87 94 124 92 141 136 167 181 193 257 384 317 365 355 285 301 182 156 135 134 145 170 179 201 170 169
41 9 -21 -34 -34 -12 5 34 59 55 75 89 87 89 119 145 160 170 177 191 234 182 197 222 232 293 226 219 235 138 166 166 154 143 146 175 178 149
28 -1 -26 -35 -37 -27 -2 19 44 60 58 76 96 103 111 143 176 199 197 242 203 162 155 168 180 163 135 110 140 135 138 168 163 123 107 123 143 136
29 -9 -30 -36 -35 -28 -10 18 35 56 77 64 87 110 120 135 145 169 202 224 240 225 191 204 184 132 125 141 162 132 99 104 138 146 165 167 140 123
33 4 -32 -37 -36 -29 -15 6 28 52 55 89 103 114 131 158 151 140 147 158 191 204 215 227 210 184 168 142 115 119 71 63 99 102 132 182 186 177

GFSNE_con_3kmhel_174.txt.gz
Helicity
60 50 48 52 62 67 73 66 68 26 4 25 -1 -36 -35 -29 -26 -22 3 83 32 -21 126 261 98 122 239 348 290 249 218 189 182 171 156 154 133 109
47 41 37 40 43 53 65 68 75 91 -29 -11 -25 -44 -62 -42 -29 -47 3 62 99 70 114 135 190 54 190 362 324 299 260 226 203 200 188 176 160 133
39 33 29 31 32 40 55 72 66 72 3 -54 -58 -44 -38 -67 -10 -36 -41 15 20 165 52 -47 -6 159 95 385 444 401 350 225 225 227 230 216 170 154
55 47 43 33 25 32 44 50 49 39 41 -76 -63 -59 -29 -13 -48 -9 -62 13 92 191 138 119 64 78 108 313 276 377 451 349 313 327 314 218 207 173
63 59 51 35 31 24 36 46 43 23 11 -17 -59 -31 -34 -46 -44 -47 -42 10 88 196 265 210 156 110 194 205 200 369 455 490 447 422 385 302 254 224
88 90 72 53 45 30 27 21 24 12 6 1 -27 -45 -44 -40 -39 -86 -42 -24 72 68 229 228 137 206 143 162 228 327 462 389 505 535 536 442 321 281
90 82 82 82 82 68 37 24 21 21 18 3 -2 -38 -44 -53 -34 -56 -61 -27 133 127 147 230 120 252 190 204 234 294 313 415 389 514 542 589 400 297
67 77 86 89 83 75 79 65 37 22 18 4 -6 -15 -29 -21 -23 -40 -62 -33 -6 -61 107 158 -70 48 183 269 200 242 333 327 371 402 473 431 410 334
78 75 78 90 89 63 41 54 40 31 38 40 15 23 -12 -18 -27 -22 -23 -13 82 104 126 54 157 49 183 230 231 248 257 272 376 357 372 512 486 444
79 81 89 88 64 69 44 46 37 38 32 46 52 69 19 -23 -15 -26 -20 -19 -18 42 68 -22 77 73 299 203 174 201 238 224 208 287 320 444 433 418
74 73 71 88 60 61 56 40 38 15 28 53 63 73 80 42 44 46 -4 -38 -52 45 152 166 -13 59 239 229 265 217 169 176 226 255 369 367 367 441
73 71 50 74 56 59 54 37 12 -14 19 49 65 111 98 64 106 121 44 10 7 43 51 67 35 40 198 338 340 209 176 168 175 188 212 257 290 191
77 76 66 40 57 61 71 30 11 -2 -5 9 26 66 102 60 77 129 148 88 89 167 218 109 28 -41 248 191 357 290 217 228 214 196 182 189 196 176
77 76 73 33 57 63 59 73 63 4 -23 17 26 72 109 76 136 197 257 257 179 170 263 149 -0 -10 77 321 250 348 333 299 303 231 209 173 151 165
69 48 28 54 58 49 54 63 19 -21 -6 32 58 85 115 110 163 199 298 302 236 227 334 309 128 95 109 495 397 393 390 321 319 317 282 264 263 243
65 78 62 53 46 40 32 19 1 -19 3 25 71 85 70 109 136 192 220 257 206 299 485 484 511 422 538 511 445 473 403 359 397 379 316 331 314 263
64 71 66 55 49 36 16 -0 3 2 22 50 65 90 87 95 110 190 170 258 229 366 710 781 509 439 480 676 544 446 445 455 494 422 443 400 344 333
73 73 68 55 43 16 -6 -9 -1 23 26 45 47 67 101 122 141 174 168 222 282 351 501 463 592 471 412 863 798 560 545 461 427 360 368 412 376 300
79 72 68 56 40 2 -28 -31 -7 18 19 33 38 62 104 142 173 166 194 219 287 230 297 370 473 565 520 432 661 654 431 431 440 388 412 321 275 276
73 67 65 54 38 -4 -38 -30 -14 11 30 40 54 67 97 128 185 179 173 211 255 243 231 276 343 380 387 434 383 373 408 342 399 288 247 236 204 169
74 66 64 54 38 -2 -44 -33 -18 -5 21 16 72 88 106 136 192 205 198 206 206 210 229 241 335 364 291 299 278 269 355 300 282 175 183 177 177 215
75 66 61 57 41 -1 -45 -33 -12 -19 -1 29 75 106 122 135 178 222 184 191 185 193 191 260 297 282 202 187 221 193 192 217 204 195 235 200 173 175
77 63 63 57 47 5 -40 -34 -22 -38 -15 35 74 109 139 162 169 188 170 163 179 169 192 265 269 226 217 154 152 167 117 133 151 169 211 244 202 170